Weather History for KMEB - February, 2012

Change the Weather History Date:

Friday, February 3, 2012

  Actual Average (KLBT) Record (KLBT)
Temperature  
Mean Temperature 47 °F 45 °F  
Max Temperature 57 °F 56 °F 73 °F (2003)
Min Temperature 37 °F 34 °F 25 °F (2000)
Degree Days  
Heating Degree Days 18 20  
Month to date heating degree days 62  
Since 1 July heating degree days 1781  
Cooling Degree Days 0 0  
Month to date cooling degree days 0  
Year to date cooling degree days 1  
Moisture  
Dew Point 32 °F    
Average Humidity 60    
Maximum Humidity 86    
Minimum Humidity 34    
Precipitation  
Precipitation 0.00 in 0.08 in 0.42 in (2005)
Month to date precipitation 0.24  
Year to date precipitation 3.21  
Sea Level Pressure  
Sea Level Pressure 30.42 in    
Wind  
Wind Speed 6 mph (NE)    
Max Wind Speed 10 mph    
Max Gust Speed -    
Visibility 10 miles    
Events      
T = Trace of Precipitation, MM = Missing Value Source: NWS Daily Summary

Daily Weather History Graph

Daily Weather History Graph

Search for Another Location

Airport or City:

Trip Planner

Search our weather history database for the weather conditions in past years. The results will help you decide how hot, cold, wet, or windy it might be!

Date:

Astronomy

Feb. 03, 2012 Rise Set
Actual Time 7:14 AM EST 5:48 PM EST
Civil Twilight 6:48 AM EST 6:14 PM EST
Nautical Twilight 6:18 AM EST 6:44 PM EST
Astronomical Twilight 5:48 AM EST 7:14 PM EST
Moon 1:53 PM EST (2/3) 3:43 AM EST (2/3)
Length of Visible Light 11h 26m
Length of Day
10h 33m
Waxing Gibbous, 81% of the Moon is Illuminated
Feb 3
Waxing Gibbous
Feb 7
Full
Feb 14
Last Quarter
Feb 21
New
Feb 29
First Quarter

Hourly Weather History & Observations

Time (EST) Temp. Windchill Dew Point Humidity Pressure Visibility Wind Dir Wind Speed Gust Speed Precip Events Conditions
12:52 AM 48.9 °F - 28.0 °F 44% 30.32 in 10.0 mi NNE 6.9 mph - N/A   Clear
1:52 AM 48.0 °F - 28.0 °F 46% 30.33 in 10.0 mi North 4.6 mph - N/A   Clear
2:52 AM 45.0 °F 43.5 °F 28.9 °F 53% 30.34 in 10.0 mi NNE 3.5 mph - N/A   Clear
3:52 AM 41.0 °F 38.0 °F 32.0 °F 70% 30.37 in 10.0 mi NE 4.6 mph - N/A   Clear
4:52 AM 41.0 °F 35.2 °F 30.0 °F 65% 30.39 in 10.0 mi NNE 9.2 mph - N/A   Clear
5:52 AM 42.1 °F 37.1 °F 30.9 °F 65% 30.42 in 10.0 mi NNE 8.1 mph - N/A   Clear
6:52 AM 39.0 °F 34.0 °F 30.9 °F 73% 30.43 in 10.0 mi NE 6.9 mph - N/A   Clear
7:52 AM 39.9 °F 35.8 °F 32.0 °F 73% 30.47 in 10.0 mi NE 5.8 mph - N/A   Clear
8:52 AM 46.0 °F 41.0 °F 33.1 °F 61% 30.48 in 10.0 mi East 10.4 mph - N/A   Clear
9:52 AM 48.9 °F - 32.0 °F 52% 30.48 in 10.0 mi East 13.8 mph - N/A   Clear
10:52 AM 51.1 °F - 32.0 °F 48% 30.49 in 10.0 mi East 8.1 mph - N/A   Clear
11:52 AM 54.0 °F - 33.1 °F 45% 30.48 in - NE 10.4 mph - N/A   Unknown
12:52 PM 55.9 °F - 30.9 °F 39% 30.45 in 10.0 mi ENE 8.1 mph - N/A   Clear
1:52 PM 57.0 °F - 30.9 °F 37% 30.44 in 10.0 mi East 6.9 mph - N/A   Clear
2:52 PM 57.9 °F - 30.0 °F 35% 30.42 in 10.0 mi NNE 3.5 mph - N/A   Clear
3:52 PM 57.0 °F - 28.9 °F 34% 30.42 in 10.0 mi East 8.1 mph - N/A   Clear
4:52 PM 55.9 °F - 30.9 °F 39% 30.42 in 10.0 mi ESE 3.5 mph - N/A   Clear
5:52 PM 50.0 °F - 34.0 °F 54% 30.43 in 10.0 mi Calm Calm - N/A   Clear
6:52 PM 45.0 °F 43.5 °F 36.0 °F 71% 30.43 in 10.0 mi NE 3.5 mph - N/A   Clear
7:52 PM 43.0 °F - 36.0 °F 76% 30.43 in 10.0 mi Calm Calm - N/A   Clear
8:52 PM 39.9 °F - 34.0 °F 79% 30.43 in 10.0 mi Calm Calm - N/A   Clear
9:52 PM 39.0 °F - 35.1 °F 86% 30.42 in 10.0 mi Calm Calm - N/A   Clear
10:52 PM 37.0 °F - 32.0 °F 82% 30.41 in 10.0 mi Calm Calm - N/A   Clear
11:52 PM 37.9 °F - 34.0 °F 86% 30.40 in 10.0 mi Calm Calm - N/A   Clear